サイディング・スプリング彗星

C/2007 K3 ( Siding Spring )

English version
Home page
Total 6,336 html files since Dec. 4, 1995
Updated on June 14, 2008

---------------------------------------------------------------------

・ プロフィール

発見日 2007年5月23日
発見光度 19.0等
発見者 Siding Spring Survey

・ 軌道要素

The following orbital elements are taken from MPC 60665:

Epoch 2008 Apr. 4.0 TT = JDT 2454560.5
T 2008 Apr. 21.7179 TT                                  MPC
q   2.050945             (2000.0)            P               Q
z  -0.000516       Peri.   23.5813      +0.2737221      +0.9205402
 +/-0.000133       Node   263.2581      -0.9210701      +0.1674365
e   1.001058       Incl.   16.2993      -0.2769585      +0.3529459
From 40 observations 2007 Apr. 18-July 18, mean residual 0".7.

・ 星図

・ 光度変化

        m1 = 12.5 + 5 logΔ + 10 log r(t + 320)

        ※ 灰色の曲線は、m1 = 9.5 + 5 logΔ + 10.0 log r の光度曲線です。

---------------------------------------------------------------------

軌道要素はMPCのEphemerides and Orbital Elementsに掲載されたものです。
星図は StellaNavigator Ver.2.0 for Windows (アストロアーツ 編著 / アスキー出版局刊) で作成したものです。
光度グラフはComet for Windowsで作成したものです。

---------------------------------------------------------------------

Copyright(C) 1995-2008 Seiichi Yoshida (comet@aerith.net). All rights reserved.